CDT,Max TemperatureF,Mean TemperatureF,Min TemperatureF,Max Dew PointF,MeanDew PointF,Min DewpointF,Max Humidity, Mean Humidity, Min Humidity, Max Sea Level PressureIn, Mean Sea Level PressureIn, Min Sea Level PressureIn, Max VisibilityMiles, Mean VisibilityMiles, Min VisibilityMiles, Max Wind SpeedMPH, Mean Wind SpeedMPH, Max Gust SpeedMPH,PrecipitationIn, CloudCover, Events, WindDirDegrees
2012-3-1,84,67,49,47,31,12,51,29,7,29.89,29.74,29.59,10,10,10,25,13,32,0.00,0,,205
2012-3-2,65,56,47,36,29,16,56,38,19,29.99,29.79,29.60,10,10,10,21,10,25,0.00,0,,5
2012-3-3,61,48,35,31,22,14,75,46,17,30.20,30.12,30.01,10,10,10,23,8,29,0.00,1,,314
2012-3-4,75,54,33,26,19,14,61,36,11,30.18,30.14,30.07,10,10,10,18,8,23,0.00,0,,185
2012-3-5,75,60,45,37,29,24,42,29,16,30.28,30.17,30.06,10,10,10,29,15,38,0.00,0,,167
2012-3-6,71,63,55,52,48,36,83,61,39,30.04,29.93,29.82,10,10,10,36,23,45,0.00,0,,177
2012-3-7,79,70,61,62,57,52,87,67,47,29.81,29.78,29.72,10,10,10,33,21,43,0.00,1,,168
2012-3-8,66,51,36,63,43,27,100,88,76,30.42,30.17,29.78,10,6,2,37,18,44,0.02,8,Rain-Snow,7
2012-3-9,45,41,36,36,31,26,92,71,49,30.51,30.41,30.35,10,9,5,22,11,26,0.26,8,Rain,34
2012-3-10,46,44,42,45,41,30,100,79,58,30.34,30.16,30.06,10,6,1,16,4,18,0.35,8,Rain-Thunderstorm,92
2012-3-11,69,57,44,47,44,41,100,69,37,30.08,29.98,29.85,10,10,6,21,9,28,0.12,4,Rain,215
2012-3-12,81,67,52,46,39,31,66,41,16,30.02,29.96,29.91,10,10,10,18,11,24,0.00,0,,211
2012-3-13,76,65,54,63,58,37,100,71,42,30.12,30.02,29.95,10,10,10,20,11,25,0.00,4,,184
2012-3-14,72,67,62,63,62,61,93,83,73,30.05,30.00,29.94,10,10,10,18,11,23,0.00,6,,171
2012-3-15,71,66,61,64,63,60,100,87,73,30.13,30.03,29.98,10,10,10,23,12,30,0.00,5,,172
2012-3-16,75,69,63,63,62,60,100,84,68,30.07,29.97,29.89,10,10,10,25,15,32,0.00,3,,172
2012-3-17,71,68,64,64,62,60,93,83,73,29.95,29.89,29.84,10,10,10,24,16,32,0.01,5,Rain-Thunderstorm,169
2012-3-18,77,72,66,64,63,62,87,74,60,29.85,29.78,29.70,10,10,10,32,24,40,0.00,2,,169
2012-3-19,70,61,52,63,54,42,87,66,44,29.75,29.66,29.59,10,9,1,28,13,36,0.41,4,Rain-Hail-Thunderstorm,226
2012-3-20,62,52,41,45,35,22,77,50,22,29.81,29.74,29.68,10,10,10,21,8,29,T,5,Rain,206
2012-3-21,61,50,38,48,39,32,86,61,36,29.85,29.80,29.77,10,10,10,23,9,29,0.04,3,Rain,273
2012-3-22,71,58,44,45,41,36,89,59,28,29.98,29.86,29.78,10,10,10,30,12,37,0.00,2,,257
2012-3-23,75,58,41,51,44,38,89,61,32,30.06,29.99,29.93,10,10,10,12,5,13,0.00,0,,148
2012-3-24,83,67,50,61,55,48,96,71,45,30.03,29.96,29.91,10,10,10,15,8,17,0.00,0,,135
2012-3-25,83,70,56,63,57,52,100,68,36,30.05,29.98,29.94,10,10,10,18,9,28,0.00,0,,157
2012-3-26,80,67,54,59,53,49,93,64,35,30.09,29.93,29.88,10,10,10,22,13,26,0.00,0,,156
2012-3-27,80,70,59,63,58,52,87,69,51,29.98,29.92,29.87,10,10,10,22,13,26,0.00,0,,169
2012-3-28,80,71,62,65,63,60,93,76,58,30.01,29.92,29.85,10,10,9,22,11,30,0.00,2,,161
2012-3-29,81,70,58,65,61,58,100,76,51,29.94,29.83,29.73,10,10,7,22,11,26,0.00,2,,173
2012-3-30,90,77,63,64,60,46,93,59,24,29.78,29.72,29.65,10,10,7,23,8,29,0.00,0,,166
2012-3-31,95,79,63,58,52,40,67,41,15,29.81,29.73,29.67,10,10,10,18,8,23,0.00,0,,157